| time (UTC) | temp F | wind direction | speed MPH | gust MPH | rain 1hr in | rain 24hr in | rain mn in | humidity % | barometer mb |
| 20260831042047 | 72 | 79 | 1.0 | 4.0 | 0.00 | 0.01 | 0.01 | 52 | 1028.0 |
| 20260831041558 | 72 | 100 | 1.0 | 6.0 | 0.00 | 0.01 | 0.01 | 53 | 1028.0 |
| 20260831041047 | 73 | 123 | 2.0 | 6.0 | 0.00 | 0.01 | 0.01 | 53 | 1028.1 |
| 20260831040545 | 72 | 325 | 2.0 | 4.0 | 0.00 | 0.01 | 0.01 | 53 | 1028.1 |
| 20260831040044 | 72 | 83 | 0.0 | 3.0 | 0.00 | 0.01 | 0.01 | 55 | 1028.2 |
| 20260831035542 | 72 | 122 | 0.0 | 5.0 | 0.00 | 0.01 | 0.01 | 56 | 1028.2 |
| 20260831035042 | 72 | 294 | 1.0 | 8.0 | 0.00 | 0.01 | 0.01 | 53 | 1028.3 |
| 20260831034541 | 72 | 252 | 1.0 | 8.0 | 0.00 | 0.01 | 0.01 | 54 | 1028.3 |
| 20260831034041 | 72 | 322 | 1.0 | 6.0 | 0.00 | 0.01 | 0.01 | 54 | 1028.3 |
| 20260831033540 | 72 | 250 | 1.0 | 8.0 | 0.00 | 0.01 | 0.01 | 52 | 1028.4 |
| 20260831033041 | 72 | 275 | 3.0 | 8.0 | 0.00 | 0.01 | 0.01 | 52 | 1028.4 |
| 20260831032539 | 72 | 313 | 3.0 | 6.0 | 0.00 | 0.01 | 0.01 | 54 | 1028.5 |
| 20260831032038 | 71 | 190 | 1.0 | 6.0 | 0.00 | 0.01 | 0.01 | 53 | 1028.6 |
| 20260831031539 | 71 | 265 | 2.0 | 9.0 | 0.00 | 0.01 | 0.01 | 55 | 1028.6 |
| 20260831031036 | 72 | 298 | 4.0 | 8.0 | 0.00 | 0.01 | 0.01 | 53 | 1028.7 |
| 20260831030534 | 72 | 328 | 0.0 | 6.0 | 0.00 | 0.01 | 0.01 | 57 | 1028.7 |
| 20260831030033 | 72 | 322 | 2.0 | 6.0 | 0.00 | 0.01 | 0.01 | 56 | 1028.9 |
| 20260831025531 | 71 | 286 | 1.0 | 7.0 | 0.00 | 0.01 | 0.01 | 57 | 1029.0 |
| 20260831025031 | 70 | 293 | 1.0 | 11.0 | 0.00 | 0.01 | 0.01 | 57 | 1029.0 |
| 20260831024530 | 70 | 276 | 2.0 | 11.0 | 0.00 | 0.01 | 0.01 | 58 | 1029.2 |
| 20260831024027 | 70 | 265 | 1.0 | 7.0 | 0.00 | 0.01 | 0.01 | 59 | 1029.2 |
| 20260831023528 | 69 | 335 | 1.0 | 10.0 | 0.00 | 0.01 | 0.01 | 59 | 1029.4 |
| 20260831023027 | 69 | 265 | 4.0 | 10.0 | 0.00 | 0.01 | 0.01 | 59 | 1029.4 |
| 20260831022526 | 70 | 282 | 2.0 | 5.0 | 0.00 | 0.01 | 0.01 | 60 | 1029.5 |
| 20260831022026 | 70 | 5 | 1.0 | 4.0 | 0.00 | 0.01 | 0.01 | 60 | 1029.5 |
| 20260831021525 | 69 | 211 | 0.0 | 5.0 | 0.00 | 0.01 | 0.01 | 62 | 1029.6 |
| 20260831021023 | 69 | 325 | 2.0 | 8.0 | 0.00 | 0.01 | 0.01 | 62 | 1029.7 |
| 20260831020522 | 69 | 245 | 2.0 | 8.0 | 0.00 | 0.01 | 0.01 | 63 | 1029.7 |
| 20260831020022 | 68 | 321 | 2.0 | 8.0 | 0.00 | 0.01 | 0.01 | 62 | 1029.8 |
| 20260831015520 | 69 | 162 | 3.0 | 8.0 | 0.00 | 0.01 | 0.01 | 62 | 1029.9 |
| 20260831015019 | 68 | 257 | 2.0 | 6.0 | 0.00 | 0.01 | 0.01 | 64 | 1030.0 |
| 20260831014519 | 68 | 117 | 1.0 | 8.0 | 0.00 | 0.01 | 0.01 | 63 | 1030.1 |
| 20260831014019 | 68 | 294 | 4.0 | 8.0 | 0.00 | 0.01 | 0.01 | 64 | 1030.2 |
| 20260831013520 | 68 | 281 | 3.0 | 8.0 | 0.00 | 0.01 | 0.01 | 65 | 1030.2 |
| 20260831013017 | 67 | 107 | 0.0 | 7.0 | 0.00 | 0.01 | 0.01 | 65 | 1030.3 |
| 20260831012516 | 67 | 240 | 3.0 | 9.0 | 0.00 | 0.01 | 0.01 | 63 | 1030.3 |
| 20260831012014 | 67 | 217 | 3.0 | 8.0 | 0.00 | 0.01 | 0.01 | 64 | 1030.4 |
| 20260831011515 | 67 | 320 | 3.0 | 6.0 | 0.00 | 0.01 | 0.01 | 63 | 1030.5 |
| 20260831011013 | 67 | 301 | 1.0 | 5.0 | 0.00 | 0.01 | 0.01 | 63 | 1030.5 |
| 20260831010513 | 67 | 298 | 2.0 | 9.0 | 0.00 | 0.01 | 0.01 | 64 | 1030.6 |
| 20260831010014 | 67 | 269 | 3.0 | 9.0 | 0.00 | 0.01 | 0.01 | 64 | 1030.6 |
| 20260831005511 | 67 | 232 | 0.0 | 4.0 | 0.00 | 0.01 | 0.01 | 66 | 1030.6 |
| 20260831005010 | 67 | 76 | 0.0 | 4.0 | 0.00 | 0.01 | 0.01 | 66 | 1030.7 |
| 20260831004509 | 66 | 28 | 2.0 | 4.0 | 0.00 | 0.01 | 0.01 | 68 | 1030.7 |
| 20260831004008 | 66 | 105 | 0.0 | 4.0 | 0.00 | 0.01 | 0.01 | 69 | 1030.7 |
| 20260831003506 | 65 | 304 | 1.0 | 5.0 | 0.00 | 0.01 | 0.01 | 71 | 1030.9 |
| 20260831003005 | 65 | 308 | 2.0 | 10.0 | 0.00 | 0.01 | 0.01 | 72 | 1030.8 |
| 20260831002504 | 65 | 349 | 2.0 | 10.0 | 0.00 | 0.01 | 0.01 | 73 | 1030.9 |
| 20260831002003 | 65 | 317 | 4.0 | 8.0 | 0.00 | 0.01 | 0.01 | 74 | 1030.8 |
| 20260831001502 | 65 | 251 | 3.0 | 9.0 | 0.00 | 0.01 | 0.01 | 75 | 1030.8 |
| 20260831001001 | 64 | 327 | 4.0 | 11.0 | 0.00 | 0.01 | 0.01 | 75 | 1030.7 |
| 20260831000603 | 64 | 319 | 4.0 | 11.0 | 0.00 | 0.01 | 0.01 | 76 | 1030.8 |
| 20260830235559 | 64 | 14 | 4.0 | 10.0 | 0.00 | 0.01 | 0.01 | 79 | 1030.7 |
| 20260830235057 | 63 | 240 | 4.0 | 10.0 | 0.00 | 0.01 | 0.01 | 79 | 1030.8 |
| 20260830234602 | 63 | 273 | 3.0 | 6.0 | 0.00 | 0.01 | 0.01 | 79 | 1030.8 |
| 20260830234054 | 63 | 271 | 1.0 | 6.0 | 0.00 | 0.01 | 0.01 | 81 | 1030.7 |
| 20260830233556 | 62 | 311 | 2.0 | 5.0 | 0.00 | 0.01 | 0.01 | 81 | 1030.7 |
| 20260830233052 | 62 | 300 | 3.0 | 7.0 | 0.00 | 0.01 | 0.01 | 82 | 1030.8 |
| 20260830232553 | 62 | 241 | 3.0 | 7.0 | 0.00 | 0.01 | 0.01 | 82 | 1030.8 |
| 20260830232050 | 62 | 274 | 3.0 | 7.0 | 0.00 | 0.01 | 0.01 | 82 | 1030.8 |
| 20260830231550 | 62 | 259 | 3.0 | 7.0 | 0.00 | 0.01 | 0.01 | 83 | 1030.7 |
| 20260830231048 | 61 | 320 | 3.0 | 7.0 | 0.00 | 0.01 | 0.01 | 83 | 1030.7 |
| 20260830230547 | 61 | 298 | 1.0 | 5.0 | 0.00 | 0.01 | 0.01 | 84 | 1030.7 |
| 20260830230048 | 61 | 257 | 0.0 | 4.0 | 0.00 | 0.01 | 0.01 | 84 | 1030.7 |
| 20260830225646 | 61 | 346 | 1.0 | 4.0 | 0.00 | 0.01 | 0.01 | 85 | 1030.6 |
| 20260830225044 | 60 | 274 | 0.0 | 2.0 | 0.00 | 0.01 | 0.01 | 86 | 1030.6 |
| 20260830224543 | 60 | 317 | 0.0 | 3.0 | 0.00 | 0.01 | 0.01 | 87 | 1030.7 |
| 20260830224042 | 60 | 317 | 0.0 | 3.0 | 0.00 | 0.01 | 0.01 | 87 | 1030.7 |
| 20260830223542 | 59 | 295 | 0.0 | 3.0 | 0.00 | 0.01 | 0.01 | 87 | 1030.6 |
| 20260830223042 | 59 | 287 | 0.0 | 1.0 | 0.00 | 0.01 | 0.01 | 88 | 1030.7 |
| 20260830222539 | 59 | 287 | 0.0 | 0.0 | 0.00 | 0.01 | 0.01 | 88 | 1030.7 |
| 20260830222042 | 58 | 287 | 0.0 | 2.0 | 0.00 | 0.01 | 0.01 | 89 | 1030.6 |
| 20260830221540 | 58 | 286 | 0.0 | 2.0 | 0.00 | 0.01 | 0.01 | 89 | 1030.6 |
| 20260830221040 | 58 | 319 | 0.0 | 3.0 | 0.00 | 0.01 | 0.01 | 90 | 1030.6 |
| 20260830220534 | 57 | 319 | 2.0 | 3.0 | 0.00 | 0.01 | 0.01 | 90 | 1030.5 |
| 20260830220033 | 57 | 311 | 2.0 | 3.0 | 0.00 | 0.01 | 0.01 | 90 | 1030.5 |
| 20260830215532 | 56 | 310 | 0.0 | 3.0 | 0.00 | 0.01 | 0.01 | 91 | 1030.5 |
| 20260830215033 | 56 | 310 | 1.0 | 3.0 | 0.00 | 0.01 | 0.01 | 91 | 1030.5 |
| 20260830214530 | 56 | 311 | 0.0 | 3.0 | 0.00 | 0.01 | 0.01 | 92 | 1030.5 |
| 20260830214028 | 55 | 305 | 0.0 | 2.0 | 0.00 | 0.01 | 0.01 | 91 | 1030.4 |
| 20260830213528 | 55 | 305 | 1.0 | 3.0 | 0.00 | 0.01 | 0.01 | 91 | 1030.4 |
| 20260830213028 | 55 | 304 | 1.0 | 4.0 | 0.00 | 0.01 | 0.01 | 91 | 1030.4 |
| 20260830212527 | 54 | 307 | 2.0 | 4.0 | 0.00 | 0.01 | 0.01 | 91 | 1030.3 |
| 20260830212027 | 54 | 315 | 2.0 | 4.0 | 0.00 | 0.01 | 0.01 | 92 | 1030.3 |
| 20260830211527 | 54 | 302 | 2.0 | 4.0 | 0.00 | 0.01 | 0.01 | 92 | 1030.3 |
| 20260830211026 | 54 | 309 | 2.0 | 4.0 | 0.00 | 0.01 | 0.01 | 92 | 1030.2 |
| 20260830210526 | 54 | 317 | 2.0 | 5.0 | 0.00 | 0.01 | 0.01 | 92 | 1030.1 |
| 20260830210024 | 53 | 343 | 3.0 | 5.0 | 0.00 | 0.01 | 0.01 | 92 | 1030.1 |
| 20260830205523 | 53 | 322 | 2.0 | 4.0 | 0.00 | 0.01 | 0.01 | 92 | 1030.0 |
| 20260830205022 | 53 | 317 | 2.0 | 4.0 | 0.00 | 0.01 | 0.01 | 92 | 1029.9 |
| 20260830204523 | 53 | 283 | 1.0 | 4.0 | 0.00 | 0.01 | 0.01 | 92 | 1029.8 |
| 20260830204022 | 53 | 309 | 2.0 | 4.0 | 0.00 | 0.01 | 0.01 | 92 | 1029.7 |
| 20260830203623 | 53 | 318 | 2.0 | 4.0 | 0.00 | 0.01 | 0.01 | 92 | 1029.6 |
| 20260830203042 | 53 | 325 | 2.0 | 4.0 | 0.00 | 0.01 | 0.01 | 92 | 1029.6 |
| 20260830202521 | 53 | 321 | 2.0 | 4.0 | 0.00 | 0.01 | 0.01 | 92 | 1029.6 |
| 20260830202020 | 53 | 311 | 2.0 | 4.0 | 0.00 | 0.01 | 0.01 | 93 | 1029.5 |
| 20260830201521 | 52 | 294 | 0.0 | 0.0 | 0.00 | 0.01 | 0.01 | 93 | 1029.5 |
| 20260830201023 | 52 | 293 | 0.0 | 0.0 | 0.00 | 0.01 | 0.01 | 94 | 1029.6 |
| 20260830200520 | 52 | 293 | 0.0 | 0.0 | 0.00 | 0.01 | 0.01 | 94 | 1029.6 |
| 20260830200020 | 52 | 293 | 0.0 | 0.0 | 0.00 | 0.01 | 0.01 | 94 | 1029.5 |
| 20260830195519 | 52 | 293 | 0.0 | 0.0 | 0.00 | 0.01 | 0.01 | 94 | 1029.5 |
| 20260830195019 | 52 | 293 | 0.0 | 0.0 | 0.00 | 0.01 | 0.01 | 95 | 1029.3 |
| 20260830194519 | 52 | 293 | 0.0 | 0.0 | 0.00 | 0.01 | 0.01 | 95 | 1029.2 |
| 20260830194019 | 52 | 293 | 0.0 | 0.0 | 0.00 | 0.01 | 0.01 | 95 | 1029.3 |
| 20260830193519 | 51 | 293 | 0.0 | 0.0 | 0.00 | 0.01 | 0.01 | 95 | 1029.3 |
| 20260830193018 | 51 | 293 | 0.0 | 0.0 | 0.00 | 0.01 | 0.01 | 95 | 1029.3 |
| 20260830192517 | 52 | 293 | 0.0 | 0.0 | 0.00 | 0.01 | 0.01 | 95 | 1029.3 |
| 20260830192017 | 52 | 293 | 0.0 | 0.0 | 0.00 | 0.01 | 0.01 | 95 | 1029.2 |
| 20260830191517 | 52 | 293 | 0.0 | 0.0 | 0.00 | 0.01 | 0.01 | 95 | 1029.0 |
| 20260830191017 | 52 | 293 | 0.0 | 0.0 | 0.00 | 0.01 | 0.01 | 95 | 1029.0 |
| 20260830190518 | 52 | 293 | 0.0 | 0.0 | 0.00 | 0.01 | 0.01 | 95 | 1029.1 |
| 20260830190025 | 52 | 313 | 0.0 | 0.0 | 0.00 | 0.01 | 0.01 | 95 | 1029.0 |
| 20260830185515 | 52 | 313 | 0.0 | 0.0 | 0.00 | 0.01 | 0.01 | 95 | 1029.2 |
| 20260830185015 | 52 | 313 | 0.0 | 0.0 | 0.00 | 0.01 | 0.01 | 95 | 1029.3 |
| 20260830184526 | 52 | 313 | 0.0 | 0.0 | 0.00 | 0.01 | 0.01 | 95 | 1029.2 |
| 20260830184014 | 52 | 313 | 0.0 | 0.0 | 0.01 | 0.01 | 0.01 | 96 | 1029.2 |
| 20260830183514 | 52 | 313 | 0.0 | 0.0 | 0.01 | 0.01 | 0.01 | 95 | 1029.2 |
| 20260830183021 | 52 | 313 | 0.0 | 0.0 | 0.01 | 0.01 | 0.01 | 95 | 1029.2 |
| 20260830182514 | 52 | 313 | 0.0 | 0.0 | 0.01 | 0.01 | 0.01 | 95 | 1029.2 |
| 20260830182015 | 52 | 313 | 0.0 | 0.0 | 0.01 | 0.01 | 0.01 | 95 | 1029.2 |
| 20260830181513 | 52 | 313 | 0.0 | 0.0 | 0.01 | 0.01 | 0.01 | 95 | 1029.2 |
| 20260830181011 | 52 | 313 | 0.0 | 0.0 | 0.01 | 0.01 | 0.01 | 95 | 1029.3 |
| 20260830180511 | 52 | 313 | 0.0 | 0.0 | 0.01 | 0.01 | 0.01 | 95 | 1029.3 |
| 20260830180017 | 52 | 313 | 0.0 | 0.0 | 0.01 | 0.01 | 0.01 | 95 | 1029.2 |
| 20260830175510 | 52 | 313 | 0.0 | 0.0 | 0.01 | 0.01 | 0.01 | 95 | 1029.2 |
| 20260830175010 | 52 | 313 | 0.0 | 0.0 | 0.01 | 0.01 | 0.01 | 95 | 1029.2 |
| 20260830174513 | 52 | 313 | 0.0 | 0.0 | 0.01 | 0.01 | 0.01 | 95 | 1029.2 |
| 20260830174009 | 52 | 313 | 0.0 | 0.0 | 0.00 | 0.00 | 0.00 | 95 | 1029.2 |
| 20260830173509 | 52 | 313 | 0.0 | 0.0 | 0.00 | 0.00 | 0.00 | 95 | 1029.2 |
| 20260830173009 | 52 | 313 | 0.0 | 0.0 | 0.00 | 0.00 | 0.00 | 95 | 1029.2 |
| 20260830172513 | 52 | 313 | 0.0 | 0.0 | 0.00 | 0.00 | 0.00 | 95 | 1029.2 |
| 20260830172008 | 52 | 313 | 0.0 | 0.0 | 0.00 | 0.00 | 0.00 | 95 | 1029.3 |
| 20260830171508 | 52 | 313 | 0.0 | 0.0 | 0.00 | 0.00 | 0.00 | 95 | 1029.2 |
| 20260830171009 | 53 | 313 | 0.0 | 0.0 | 0.00 | 0.00 | 0.00 | 95 | 1029.2 |
| 20260830170512 | 53 | 313 | 0.0 | 0.0 | 0.00 | 0.00 | 0.00 | 95 | 1029.2 |
| 20260830170008 | 53 | 313 | 0.0 | 0.0 | 0.00 | 0.00 | 0.00 | 94 | 1029.3 |
| 20260830165505 | 53 | 313 | 0.0 | 0.0 | 0.00 | 0.00 | 0.00 | 95 | 1029.2 |
| 20260830165005 | 53 | 313 | 0.0 | 0.0 | 0.00 | 0.00 | 0.00 | 94 | 1029.3 |
| 20260830164504 | 53 | 313 | 0.0 | 0.0 | 0.00 | 0.00 | 0.00 | 94 | 1029.3 |
| 20260830164006 | 53 | 313 | 0.0 | 0.0 | 0.00 | 0.00 | 0.00 | 94 | 1029.2 |
| 20260830163503 | 53 | 313 | 0.0 | 0.0 | 0.00 | 0.00 | 0.00 | 94 | 1029.3 |
| 20260830163003 | 53 | 313 | 0.0 | 0.0 | 0.00 | 0.00 | 0.00 | 95 | 1029.3 |
| 20260830162504 | 53 | 313 | 0.0 | 0.0 | 0.00 | 0.00 | 0.00 | 95 | 1029.3 |
| 20260830162002 | 53 | 313 | 0.0 | 0.0 | 0.00 | 0.00 | 0.00 | 94 | 1029.3 |
| 20260830161503 | 53 | 313 | 0.0 | 0.0 | 0.00 | 0.00 | 0.00 | 94 | 1029.4 |
| 20260830161001 | 53 | 313 | 0.0 | 0.0 | 0.00 | 0.00 | 0.00 | 94 | 1029.2 |
| 20260830160502 | 53 | 313 | 0.0 | 0.0 | 0.00 | 0.00 | 0.00 | 94 | 1029.4 |
| 20260830160001 | 53 | 313 | 0.0 | 0.0 | 0.00 | 0.01 | 0.00 | 94 | 1029.4 |
| 20260830155600 | 54 | 313 | 0.0 | 0.0 | 0.00 | 0.01 | 0.00 | 94 | 1029.4 |
| 20260830155103 | 54 | 313 | 0.0 | 0.0 | 0.00 | 0.01 | 0.00 | 94 | 1029.5 |
| 20260830154600 | 54 | 313 | 0.0 | 0.0 | 0.00 | 0.01 | 0.00 | 94 | 1029.5 |
| 20260830154059 | 54 | 313 | 0.0 | 0.0 | 0.00 | 0.01 | 0.00 | 94 | 1029.5 |
| 20260830153559 | 54 | 313 | 0.0 | 0.0 | 0.00 | 0.01 | 0.00 | 94 | 1029.6 |
| 20260830153059 | 54 | 313 | 0.0 | 0.0 | 0.00 | 0.01 | 0.00 | 94 | 1029.6 |
| 20260830152559 | 54 | 313 | 0.0 | 0.0 | 0.00 | 0.01 | 0.00 | 94 | 1029.6 |
| 20260830152057 | 54 | 313 | 0.0 | 0.0 | 0.00 | 0.01 | 0.00 | 94 | 1029.6 |
| 20260830151557 | 54 | 313 | 0.0 | 0.0 | 0.00 | 0.01 | 0.00 | 94 | 1029.7 |
| 20260830151057 | 53 | 313 | 0.0 | 0.0 | 0.00 | 0.01 | 0.00 | 93 | 1029.7 |
| 20260830150557 | 53 | 313 | 0.0 | 0.0 | 0.00 | 0.01 | 0.00 | 93 | 1029.7 |
| 20260830150058 | 53 | 313 | 0.0 | 0.0 | 0.00 | 0.01 | 0.00 | 93 | 1029.7 |
| 20260830145556 | 54 | 313 | 0.0 | 0.0 | 0.00 | 0.01 | 0.00 | 93 | 1029.7 |
| 20260830145056 | 54 | 313 | 0.0 | 0.0 | 0.00 | 0.01 | 0.00 | 93 | 1029.8 |
| 20260830144605 | 54 | 313 | 0.0 | 0.0 | 0.00 | 0.01 | 0.00 | 93 | 1029.8 |
| 20260830144054 | 53 | 318 | 0.0 | 0.0 | 0.00 | 0.01 | 0.00 | 93 | 1029.8 |
| 20260830143557 | 53 | 318 | 0.0 | 0.0 | 0.00 | 0.01 | 0.00 | 92 | 1029.7 |
| 20260830143053 | 53 | 318 | 0.0 | 0.0 | 0.00 | 0.01 | 0.00 | 92 | 1029.8 |
| 20260830142555 | 53 | 318 | 0.0 | 0.0 | 0.00 | 0.01 | 0.00 | 92 | 1029.7 |
| 20260830142052 | 54 | 318 | 0.0 | 0.0 | 0.00 | 0.01 | 0.00 | 91 | 1029.8 |
| 20260830141551 | 54 | 318 | 0.0 | 0.0 | 0.00 | 0.01 | 0.00 | 91 | 1029.6 |
| 20260830141049 | 54 | 318 | 0.0 | 0.0 | 0.00 | 0.01 | 0.00 | 90 | 1029.7 |
| 20260830140548 | 54 | 318 | 0.0 | 0.0 | 0.00 | 0.01 | 0.00 | 90 | 1029.7 |
| 20260830140047 | 55 | 318 | 0.0 | 0.0 | 0.00 | 0.01 | 0.00 | 90 | 1029.6 |
| 20260830135547 | 55 | 318 | 0.0 | 0.0 | 0.00 | 0.01 | 0.01 | 90 | 1029.7 |
| 20260830135047 | 55 | 318 | 0.0 | 0.0 | 0.00 | 0.01 | 0.01 | 90 | 1029.7 |
| 20260830134549 | 55 | 318 | 0.0 | 0.0 | 0.00 | 0.01 | 0.01 | 89 | 1029.6 |
| 20260830134047 | 56 | 318 | 0.0 | 0.0 | 0.00 | 0.01 | 0.01 | 89 | 1029.6 |
| 20260830133547 | 56 | 318 | 0.0 | 0.0 | 0.00 | 0.01 | 0.01 | 89 | 1029.7 |
| 20260830133054 | 56 | 318 | 0.0 | 0.0 | 0.00 | 0.01 | 0.01 | 90 | 1029.7 |
| 20260830132547 | 56 | 318 | 0.0 | 0.0 | 0.00 | 0.01 | 0.01 | 90 | 1029.6 |
| 20260830132047 | 56 | 318 | 0.0 | 0.0 | 0.00 | 0.01 | 0.01 | 89 | 1029.6 |
| 20260830131546 | 56 | 318 | 0.0 | 0.0 | 0.00 | 0.01 | 0.01 | 90 | 1029.7 |
| 20260830131046 | 56 | 330 | 0.0 | 0.0 | 0.00 | 0.01 | 0.01 | 90 | 1029.7 |
| 20260830130546 | 56 | 330 | 0.0 | 0.0 | 0.00 | 0.01 | 0.01 | 90 | 1029.7 |
| 20260830130045 | 55 | 330 | 0.0 | 0.0 | 0.00 | 0.01 | 0.01 | 90 | 1029.7 |
| 20260830125544 | 55 | 330 | 0.0 | 0.0 | 0.00 | 0.01 | 0.01 | 90 | 1029.8 |
| 20260830125044 | 55 | 330 | 0.0 | 0.0 | 0.00 | 0.01 | 0.01 | 91 | 1029.7 |
| 20260830124545 | 55 | 330 | 0.0 | 0.0 | 0.00 | 0.01 | 0.01 | 91 | 1029.7 |
| 20260830124047 | 55 | 330 | 0.0 | 0.0 | 0.00 | 0.01 | 0.01 | 91 | 1029.9 |
| 20260830123545 | 56 | 330 | 0.0 | 0.0 | 0.00 | 0.01 | 0.01 | 91 | 1029.9 |
| 20260830123045 | 55 | 330 | 0.0 | 0.0 | 0.00 | 0.01 | 0.01 | 90 | 1029.9 |
| 20260830122544 | 56 | 330 | 0.0 | 0.0 | 0.00 | 0.01 | 0.01 | 90 | 1029.9 |
| 20260830122044 | 56 | 330 | 0.0 | 0.0 | 0.00 | 0.01 | 0.01 | 89 | 1029.8 |
| 20260830121544 | 56 | 330 | 0.0 | 0.0 | 0.00 | 0.01 | 0.01 | 89 | 1029.8 |
| 20260830121043 | 56 | 330 | 0.0 | 0.0 | 0.00 | 0.01 | 0.01 | 88 | 1029.7 |
| 20260830120543 | 56 | 330 | 0.0 | 0.0 | 0.00 | 0.01 | 0.01 | 88 | 1029.6 |
| 20260830120044 | 56 | 330 | 0.0 | 0.0 | 0.00 | 0.01 | 0.01 | 87 | 1029.6 |
| 20260830115543 | 57 | 330 | 0.0 | 0.0 | 0.00 | 0.01 | 0.01 | 88 | 1029.6 |
| 20260830115043 | 57 | 330 | 0.0 | 0.0 | 0.00 | 0.01 | 0.01 | 87 | 1029.5 |
| 20260830114556 | 57 | 330 | 0.0 | 0.0 | 0.00 | 0.01 | 0.01 | 87 | 1029.5 |
| 20260830114042 | 57 | 330 | 0.0 | 0.0 | 0.00 | 0.01 | 0.01 | 87 | 1029.5 |
| 20260830113542 | 57 | 330 | 0.0 | 0.0 | 0.00 | 0.01 | 0.01 | 87 | 1029.6 |
| 20260830113042 | 57 | 330 | 0.0 | 0.0 | 0.00 | 0.01 | 0.01 | 87 | 1029.6 |
| 20260830112542 | 58 | 330 | 0.0 | 0.0 | 0.00 | 0.01 | 0.01 | 87 | 1029.6 |
| 20260830112046 | 58 | 330 | 0.0 | 0.0 | 0.00 | 0.01 | 0.01 | 87 | 1029.6 |
| 20260830111542 | 58 | 330 | 0.0 | 0.0 | 0.00 | 0.01 | 0.01 | 86 | 1029.6 |
| 20260830111042 | 58 | 330 | 0.0 | 0.0 | 0.00 | 0.01 | 0.01 | 86 | 1029.6 |
| 20260830110548 | 58 | 330 | 0.0 | 0.0 | 0.00 | 0.01 | 0.01 | 86 | 1029.5 |
| 20260830110042 | 58 | 330 | 0.0 | 0.0 | 0.00 | 0.01 | 0.01 | 86 | 1029.5 |
| 20260830105541 | 58 | 330 | 0.0 | 0.0 | 0.00 | 0.01 | 0.01 | 86 | 1029.5 |
| 20260830105040 | 58 | 330 | 0.0 | 0.0 | 0.00 | 0.01 | 0.01 | 85 | 1029.4 |
| 20260830104543 | 58 | 330 | 0.0 | 0.0 | 0.00 | 0.01 | 0.01 | 85 | 1029.5 |
| 20260830104041 | 58 | 330 | 0.0 | 0.0 | 0.00 | 0.01 | 0.01 | 85 | 1029.5 |
| 20260830103541 | 59 | 330 | 0.0 | 0.0 | 0.00 | 0.01 | 0.01 | 85 | 1029.5 |
| 20260830103049 | 59 | 330 | 0.0 | 0.0 | 0.00 | 0.01 | 0.01 | 85 | 1029.5 |
| 20260830102540 | 59 | 330 | 0.0 | 0.0 | 0.00 | 0.01 | 0.01 | 84 | 1029.5 |
| 20260830102040 | 59 | 330 | 0.0 | 0.0 | 0.00 | 0.01 | 0.01 | 84 | 1029.4 |
| 20260830101540 | 59 | 330 | 0.0 | 0.0 | 0.00 | 0.01 | 0.01 | 83 | 1029.4 |
| 20260830101040 | 59 | 330 | 0.0 | 0.0 | 0.00 | 0.01 | 0.01 | 83 | 1029.5 |
| 20260830100541 | 59 | 330 | 0.0 | 0.0 | 0.00 | 0.01 | 0.01 | 83 | 1029.3 |
| 20260830100040 | 60 | 330 | 0.0 | 0.0 | 0.00 | 0.01 | 0.01 | 83 | 1029.3 |
| 20260830095540 | 60 | 330 | 0.0 | 0.0 | 0.00 | 0.01 | 0.01 | 83 | 1029.3 |
| 20260830095040 | 60 | 331 | 0.0 | 0.0 | 0.00 | 0.01 | 0.01 | 83 | 1029.3 |
| 20260830094542 | 59 | 338 | 0.0 | 3.0 | 0.00 | 0.01 | 0.01 | 83 | 1029.2 |
| 20260830094040 | 59 | 350 | 0.0 | 2.0 | 0.00 | 0.01 | 0.01 | 83 | 1029.2 |
| 20260830093540 | 59 | 350 | 0.0 | 2.0 | 0.00 | 0.01 | 0.01 | 83 | 1029.2 |
| 20260830093053 | 59 | 350 | 0.0 | 1.0 | 0.00 | 0.01 | 0.01 | 83 | 1029.1 |
| 20260830092539 | 59 | 350 | 0.0 | 1.0 | 0.00 | 0.01 | 0.01 | 83 | 1029.1 |
| 20260830092041 | 59 | 350 | 0.0 | 2.0 | 0.00 | 0.01 | 0.01 | 84 | 1029.2 |
| 20260830091539 | 59 | 350 | 0.0 | 2.0 | 0.00 | 0.01 | 0.01 | 84 | 1029.1 |
| 20260830091039 | 59 | 350 | 1.0 | 2.0 | 0.00 | 0.01 | 0.01 | 85 | 1029.0 |
| 20260830090538 | 59 | 355 | 0.0 | 1.0 | 0.00 | 0.01 | 0.01 | 84 | 1029.0 |
| 20260830090039 | 59 | 355 | 0.0 | 1.0 | 0.00 | 0.01 | 0.01 | 84 | 1028.9 |
| 20260830085537 | 59 | 355 | 0.0 | 1.0 | 0.00 | 0.01 | 0.01 | 84 | 1028.9 |
| 20260830085041 | 59 | 122 | 0.0 | 0.0 | 0.00 | 0.01 | 0.01 | 84 | 1028.9 |
| 20260830084538 | 59 | 122 | 0.0 | 0.0 | 0.00 | 0.01 | 0.01 | 84 | 1028.8 |
| 20260830084038 | 59 | 122 | 0.0 | 0.0 | 0.00 | 0.01 | 0.01 | 84 | 1028.8 |
| 20260830083537 | 59 | 122 | 0.0 | 0.0 | 0.00 | 0.01 | 0.01 | 84 | 1028.8 |
| 20260830083038 | 59 | 122 | 0.0 | 0.0 | 0.00 | 0.01 | 0.01 | 83 | 1028.6 |
| 20260830082536 | 60 | 122 | 0.0 | 0.0 | 0.00 | 0.01 | 0.01 | 83 | 1028.7 |
| 20260830082036 | 60 | 122 | 0.0 | 1.0 | 0.00 | 0.01 | 0.01 | 82 | 1028.6 |
| 20260830081538 | 60 | 122 | 0.0 | 1.0 | 0.00 | 0.01 | 0.01 | 82 | 1028.6 |
| 20260830081038 | 60 | 122 | 0.0 | 1.0 | 0.00 | 0.01 | 0.01 | 82 | 1028.6 |
| 20260830080536 | 60 | 122 | 0.0 | 0.0 | 0.00 | 0.01 | 0.01 | 81 | 1028.6 |
| 20260830080037 | 61 | 122 | 0.0 | 0.0 | 0.00 | 0.01 | 0.01 | 80 | 1028.5 |
| 20260830075535 | 61 | 122 | 0.0 | 0.0 | 0.00 | 0.01 | 0.01 | 79 | 1028.4 |
| 20260830075035 | 62 | 122 | 0.0 | 0.0 | 0.00 | 0.01 | 0.01 | 79 | 1028.4 |
| 20260830074535 | 62 | 122 | 0.0 | 0.0 | 0.00 | 0.01 | 0.01 | 79 | 1028.4 |
| 20260830074037 | 62 | 122 | 0.0 | 0.0 | 0.00 | 0.01 | 0.01 | 78 | 1028.4 |
| 20260830073535 | 62 | 122 | 0.0 | 0.0 | 0.00 | 0.01 | 0.01 | 78 | 1028.3 |
| 20260830073035 | 63 | 122 | 0.0 | 0.0 | 0.00 | 0.01 | 0.01 | 78 | 1028.3 |
| 20260830072535 | 63 | 122 | 0.0 | 0.0 | 0.00 | 0.01 | 0.01 | 77 | 1028.2 |
| 20260830072035 | 63 | 122 | 0.0 | 0.0 | 0.00 | 0.01 | 0.01 | 77 | 1028.2 |
| 20260830071602 | 63 | 122 | 0.0 | 0.0 | 0.00 | 0.01 | 0.01 | 76 | 1028.2 |
| 20260830071035 | 64 | 122 | 0.0 | 0.0 | 0.00 | 0.01 | 0.01 | 76 | 1028.1 |
| 20260830070536 | 64 | 122 | 0.0 | 2.0 | 0.00 | 0.01 | 0.01 | 76 | 1028.1 |
| 20260830070037 | 64 | 122 | 0.0 | 2.0 | 0.00 | 0.01 | 0.01 | 76 | 1028.1 |
| 20260830065535 | 64 | 122 | 0.0 | 2.0 | 0.00 | 0.01 | 0.01 | 75 | 1028.1 |
| 20260830065035 | 64 | 122 | 0.0 | 2.0 | 0.00 | 0.01 | 0.01 | 75 | 1028.0 |
| 20260830064533 | 64 | 122 | 0.0 | 2.0 | 0.00 | 0.01 | 0.01 | 75 | 1028.0 |
| 20260830064033 | 64 | 68 | 0.0 | 4.0 | 0.00 | 0.01 | 0.01 | 74 | 1028.0 |
| 20260830063533 | 65 | 68 | 1.0 | 4.0 | 0.00 | 0.01 | 0.01 | 73 | 1028.0 |
| 20260830063033 | 65 | 70 | 1.0 | 2.0 | 0.00 | 0.01 | 0.01 | 73 | 1028.0 |
| 20260830062532 | 65 | 92 | 0.0 | 2.0 | 0.00 | 0.01 | 0.01 | 73 | 1028.0 |
| 20260830062033 | 65 | 93 | 0.0 | 3.0 | 0.00 | 0.01 | 0.01 | 73 | 1027.9 |
| 20260830061532 | 65 | 93 | 1.0 | 3.0 | 0.00 | 0.01 | 0.01 | 73 | 1027.9 |
| 20260830061032 | 66 | 74 | 1.0 | 3.0 | 0.00 | 0.01 | 0.01 | 72 | 1027.9 |
| 20260830060532 | 66 | 103 | 0.0 | 4.0 | 0.00 | 0.01 | 0.01 | 72 | 1027.9 |
| 20260830060032 | 66 | 59 | 0.0 | 3.0 | 0.00 | 0.01 | 0.01 | 72 | 1027.8 |
| 20260830055530 | 66 | 74 | 0.0 | 4.0 | 0.00 | 0.01 | 0.01 | 72 | 1027.8 |
| 20260830055031 | 66 | 94 | 1.0 | 5.0 | 0.00 | 0.01 | 0.01 | 72 | 1027.9 |
| 20260830054532 | 66 | 103 | 1.0 | 6.0 | 0.00 | 0.01 | 0.01 | 71 | 1027.9 |
| 20260830054032 | 66 | 105 | 2.0 | 6.0 | 0.00 | 0.01 | 0.01 | 70 | 1027.9 |
| 20260830053529 | 67 | 96 | 0.0 | 4.0 | 0.00 | 0.01 | 0.01 | 70 | 1027.9 |
| 20260830053029 | 67 | 109 | 1.0 | 4.0 | 0.00 | 0.01 | 0.01 | 70 | 1027.9 |
| 20260830052529 | 67 | 107 | 1.0 | 4.0 | 0.00 | 0.01 | 0.01 | 70 | 1027.9 |
| 20260830052029 | 67 | 101 | 0.0 | 4.0 | 0.00 | 0.01 | 0.01 | 70 | 1028.0 |
| 20260830051528 | 67 | 68 | 1.0 | 6.0 | 0.00 | 0.01 | 0.01 | 69 | 1028.0 |
| 20260830051030 | 67 | 77 | 2.0 | 6.0 | 0.00 | 0.01 | 0.01 | 69 | 1028.1 |
| 20260830050529 | 67 | 75 | 1.0 | 7.0 | 0.00 | 0.01 | 0.01 | 70 | 1028.2 |
| 20260830050028 | 67 | 117 | 2.0 | 7.0 | 0.00 | 0.01 | 0.01 | 69 | 1028.1 |
| 20260830045527 | 68 | 90 | 1.0 | 4.0 | 0.00 | 0.01 | 0.01 | 70 | 1028.2 |
| 20260830045027 | 68 | 79 | 1.0 | 5.0 | 0.00 | 0.01 | 0.01 | 70 | 1028.2 |
| 20260830044546 | 68 | 74 | 1.0 | 7.0 | 0.00 | 0.01 | 0.01 | 70 | 1028.2 |
| 20260830044031 | 68 | 165 | 2.0 | 7.0 | 0.00 | 0.01 | 0.01 | 68 | 1028.2 |
| 20260830043526 | 68 | 92 | 1.0 | 6.0 | 0.00 | 0.01 | 0.01 | 69 | 1028.2 |
| 20260830043026 | 68 | 69 | 2.0 | 6.0 | 0.00 | 0.01 | 0.01 | 68 | 1028.1 |
| 20260830042525 | 69 | 108 | 1.0 | 4.0 | 0.00 | 0.01 | 0.01 | 68 | 1028.2 |